Meteo orario Abbotsford

Oggi, 14 Giugno, Lunedi

Tempo Temperatura Precipitazioni Vento Pressione Umidità
00:00 +15°C° 0 mm 1 m/s 753 mm Hg 96%
01:00 +14°C° 0 mm 0 m/s 753 mm Hg 96%
02:00 +13°C° 0.1 mm 0 m/s 753 mm Hg 96%
03:00 +13°C° 0.1 mm 0 m/s 753 mm Hg 97%
04:00 +13°C° 0.1 mm 0 m/s 753 mm Hg 97%
05:00 +14°C° 0.1 mm 0 m/s 754 mm Hg 96%
06:00 +14°C° 0.1 mm 0 m/s 754 mm Hg 95%
07:00 +15°C° 0.1 mm 0 m/s 754 mm Hg 94%
08:00 +18°C° 0.2 mm 1 m/s 754 mm Hg 88%
09:00 +20°C° 0.2 mm 1 m/s 754 mm Hg 81%
10:00 +21°C° 0.2 mm 1 m/s 754 mm Hg 74%
11:00 +21°C° 0.4 mm 1 m/s 754 mm Hg 76%
12:00 +20°C° 0.4 mm 2 m/s 754 mm Hg 79%
13:00 +19°C° 0.4 mm 2 m/s 754 mm Hg 81%
14:00 +20°C° 0.5 mm 1 m/s 754 mm Hg 81%
15:00 +20°C° 0.5 mm 1 m/s 754 mm Hg 81%
16:00 +20°C° 0.5 mm 1 m/s 755 mm Hg 81%
17:00 +19°C° 0.4 mm 1 m/s 755 mm Hg 85%
18:00 +16°C° 0.4 mm 0 m/s 755 mm Hg 89%
19:00 +16°C° 0.4 mm 0 m/s 755 mm Hg 93%
20:00 +16°C° 0.1 mm 1 m/s 755 mm Hg 94%
21:00 +14°C° 0.1 mm 1 m/s 755 mm Hg 95%
22:00 +13°C° 0.1 mm 1 m/s 755 mm Hg 96%
23:00 +13°C° 0.2 mm 1 m/s 755 mm Hg 96%

Domani, 15 Giugno, Martedi

Tempo Temperatura Precipitazioni Vento Pressione Umidità
00:00 +12°C° 0.2 mm 1 m/s 755 mm Hg 96%
01:00 +12°C° 0.2 mm 1 m/s 755 mm Hg 96%
02:00 +12°C° 0.3 mm 1 m/s 755 mm Hg 96%
03:00 +11°C° 0.3 mm 1 m/s 756 mm Hg 96%
04:00 +11°C° 0.3 mm 1 m/s 756 mm Hg 96%
05:00 +12°C° 0.2 mm 1 m/s 756 mm Hg 95%
06:00 +13°C° 0.2 mm 1 m/s 757 mm Hg 94%
07:00 +14°C° 0.2 mm 1 m/s 757 mm Hg 93%
08:00 +16°C° 0.3 mm 1 m/s 757 mm Hg 86%
09:00 +17°C° 0.3 mm 2 m/s 757 mm Hg 79%
10:00 +18°C° 0.3 mm 2 m/s 757 mm Hg 72%
11:00 +18°C° 0.6 mm 2 m/s 757 mm Hg 69%
12:00 +19°C° 0.6 mm 2 m/s 757 mm Hg 67%
13:00 +19°C° 0.6 mm 2 m/s 758 mm Hg 64%
14:00 +20°C° 0.4 mm 2 m/s 758 mm Hg 63%
15:00 +20°C° 0.4 mm 2 m/s 758 mm Hg 61%
16:00 +20°C° 0.4 mm 2 m/s 758 mm Hg 59%
17:00 +19°C° 0.4 mm 2 m/s 758 mm Hg 68%
18:00 +18°C° 0.4 mm 1 m/s 759 mm Hg 76%
19:00 +16°C° 0.4 mm 1 m/s 759 mm Hg 85%
20:00 +15°C° 0.1 mm 1 m/s 760 mm Hg 87%
21:00 +14°C° 0.1 mm 1 m/s 760 mm Hg 90%
22:00 +12°C° 0.1 mm 1 m/s 761 mm Hg 92%
23:00 +13°C° 0 mm 1 m/s 761 mm Hg 92%

Dopodomani, 16 Giugno, Mercoledi

Tempo Temperatura Precipitazioni Vento Pressione Umidità
00:00 +13°C° 0 mm 1 m/s 762 mm Hg 92%
01:00 +13°C° 0 mm 1 m/s 762 mm Hg 91%
02:00 +12°C° 0 mm 1 m/s 762 mm Hg 92%
03:00 +12°C° 0 mm 1 m/s 763 mm Hg 93%
04:00 +11°C° 0 mm 1 m/s 763 mm Hg 94%
05:00 +12°C° 0 mm 1 m/s 763 mm Hg 91%
06:00 +13°C° 0 mm 1 m/s 763 mm Hg 87%
07:00 +14°C° 0 mm 1 m/s 763 mm Hg 84%
08:00 +16°C° 0 mm 1 m/s 763 mm Hg 76%
09:00 +18°C° 0 mm 1 m/s 763 mm Hg 68%
10:00 +19°C° 0 mm 1 m/s 763 mm Hg 60%
11:00 +19°C° 0 mm 2 m/s 762 mm Hg 56%
12:00 +20°C° 0 mm 2 m/s 762 mm Hg 51%
13:00 +21°C° 0 mm 2 m/s 761 mm Hg 47%
14:00 +23°C° 0 mm 2 m/s 761 mm Hg 47%
15:00 +23°C° 0 mm 2 m/s 761 mm Hg 47%
16:00 +23°C° 0 mm 2 m/s 760 mm Hg 47%
17:00 +20°C° 0 mm 2 m/s 760 mm Hg 55%
18:00 +20°C° 0 mm 1 m/s 760 mm Hg 63%
19:00 +19°C° 0 mm 1 m/s 760 mm Hg 71%
20:00 +16°C° 0 mm 1 m/s 760 mm Hg 77%
21:00 +14°C° 0 mm 1 m/s 760 mm Hg 83%
22:00 +12°C° 0 mm 1 m/s 761 mm Hg 89%
23:00 +12°C° 0 mm 1 m/s 761 mm Hg 89%

17 Giugno, Giovedi

Tempo Temperatura Precipitazioni Vento Pressione Umidità
00:00 +12°C° 0 mm 1 m/s 761 mm Hg 89%
01:00 +11°C° 0 mm 1 m/s 761 mm Hg 89%
02:00 +11°C° 0 mm 1 m/s 761 mm Hg 88%
03:00 +11°C° 0 mm 1 m/s 761 mm Hg 87%
04:00 +11°C° 0 mm 1 m/s 761 mm Hg 87%
05:00 +13°C° 0 mm 1 m/s 761 mm Hg 79%
06:00 +15°C° 0 mm 1 m/s 761 mm Hg 72%
07:00 +16°C° 0 mm 0 m/s 761 mm Hg 65%
08:00 +19°C° 0 mm 1 m/s 760 mm Hg 60%
09:00 +21°C° 0 mm 1 m/s 760 mm Hg 56%
10:00 +23°C° 0 mm 2 m/s 760 mm Hg 51%
11:00 +24°C° 0 mm 2 m/s 760 mm Hg 49%
12:00 +25°C° 0 mm 2 m/s 759 mm Hg 47%
13:00 +26°C° 0 mm 2 m/s 759 mm Hg 45%
14:00 +25°C° 0 mm 2 m/s 759 mm Hg 45%
15:00 +25°C° 0 mm 2 m/s 758 mm Hg 46%
16:00 +25°C° 0 mm 2 m/s 758 mm Hg 47%
17:00 +24°C° 0 mm 2 m/s 758 mm Hg 56%
18:00 +22°C° 0 mm 1 m/s 758 mm Hg 65%
19:00 +20°C° 0 mm 1 m/s 757 mm Hg 75%
20:00 +19°C° 0 mm 1 m/s 757 mm Hg 77%
21:00 +18°C° 0 mm 1 m/s 757 mm Hg 79%
22:00 +15°C° 0 mm 1 m/s 757 mm Hg 82%
23:00 +15°C° 0 mm 1 m/s 757 mm Hg 84%

18 Giugno, Venerdi

Tempo Temperatura Precipitazioni Vento Pressione Umidità
00:00 +14°C° 0 mm 1 m/s 757 mm Hg 86%
01:00 +14°C° 0 mm 1 m/s 757 mm Hg 89%
02:00 +14°C° 0 mm 1 m/s 757 mm Hg 89%
03:00 +13°C° 0 mm 1 m/s 757 mm Hg 90%
04:00 +13°C° 0 mm 1 m/s 756 mm Hg 90%
05:00 +15°C° 0 mm 1 m/s 756 mm Hg 83%
06:00 +16°C° 0 mm 0 m/s 756 mm Hg 75%
07:00 +18°C° 0 mm 0 m/s 756 mm Hg 68%
08:00 +22°C° 0 mm 1 m/s 756 mm Hg 63%
09:00 +24°C° 0 mm 1 m/s 755 mm Hg 57%
10:00 +25°C° 0 mm 2 m/s 755 mm Hg 52%
11:00 +26°C° 0 mm 2 m/s 755 mm Hg 49%
12:00 +27°C° 0 mm 2 m/s 754 mm Hg 46%
13:00 +28°C° 0 mm 2 m/s 754 mm Hg 43%
14:00 +28°C° 0 mm 2 m/s 754 mm Hg 42%
15:00 +28°C° 0 mm 2 m/s 753 mm Hg 42%
16:00 +28°C° 0 mm 2 m/s 753 mm Hg 41%
17:00 +26°C° 0 mm 2 m/s 753 mm Hg 52%
18:00 +24°C° 0 mm 1 m/s 753 mm Hg 62%
19:00 +22°C° 0 mm 1 m/s 753 mm Hg 72%
20:00 +20°C° 0 mm 1 m/s 753 mm Hg 75%
21:00 +19°C° 0 mm 1 m/s 753 mm Hg 78%
22:00 +16°C° 0 mm 1 m/s 753 mm Hg 81%
23:00 +16°C° 0 mm 1 m/s 753 mm Hg 80%

19 Giugno, Sabato

Tempo Temperatura Precipitazioni Vento Pressione Umidità
00:00 +15°C° 0 mm 1 m/s 754 mm Hg 79%
01:00 +15°C° 0 mm 1 m/s 754 mm Hg 78%
02:00 +14°C° 0 mm 1 m/s 754 mm Hg 78%
03:00 +14°C° 0 mm 1 m/s 754 mm Hg 78%
04:00 +14°C° 0 mm 1 m/s 754 mm Hg 77%
05:00 +16°C° 0 mm 1 m/s 754 mm Hg 73%
06:00 +18°C° 0 mm 1 m/s 754 mm Hg 68%
07:00 +20°C° 0 mm 1 m/s 754 mm Hg 64%
08:00 +21°C° 0 mm 1 m/s 754 mm Hg 61%
09:00 +22°C° 0 mm 1 m/s 754 mm Hg 57%
10:00 +23°C° 0 mm 2 m/s 754 mm Hg 54%
11:00 +24°C° 0 mm 2 m/s 754 mm Hg 51%
12:00 +25°C° 0 mm 2 m/s 754 mm Hg 48%
13:00 +26°C° 0 mm 2 m/s 754 mm Hg 45%
14:00 +26°C° 0 mm 2 m/s 754 mm Hg 45%
15:00 +26°C° 0 mm 2 m/s 754 mm Hg 44%
16:00 +26°C° 0 mm 2 m/s 753 mm Hg 43%
17:00 +24°C° 0 mm 2 m/s 753 mm Hg 52%
18:00 +23°C° 0 mm 1 m/s 753 mm Hg 60%
19:00 +21°C° 0 mm 1 m/s 753 mm Hg 68%
20:00 +20°C° 0 mm 1 m/s 753 mm Hg 70%
21:00 +19°C° 0 mm 1 m/s 754 mm Hg 72%
22:00 +16°C° 0 mm 1 m/s 754 mm Hg 74%
23:00 +16°C° 0 mm 1 m/s 754 mm Hg 75%
Mostrare altro

Abbiamo bisogno del tuo consenso

Meteoprog e i nostri fornitori di servizi possono memorizzare e accedere a dati personali come cookie, identificatori di dispositivi o altre tecnologie simili sul tuo dispositivo e possono elaborare tali dati per personalizzare i contenuti e gli annunci, nonché fornire funzionalità dei social media e analizzarne il traffico.

  • Archiviare e/o accedere alle informazioni sul tuo dispositivo

    Cookie, identificatori di dispositivi o altre informazioni possono essere memorizzati o resi accessibili sul tuo dispositivo per le finalità sopra indicate.

  • Annunci e contenuti personalizzati, misurazione di annunci e contenuti, approfondimenti sul pubblico e sviluppo di prodotti

    Gli annunci e i contenuti possono essere personalizzati in base a un profilo. È possibile aggiungere più dati per personalizzare meglio annunci e contenuti. È possibile misurare il rendimento degli annunci e dei contenuti. È possibile ricavare informazioni sul pubblico che ha visto gli annunci e i contenuti. Tali dati possono essere utilizzati per sviluppare o migliorare l'esperienza, i sistemi e il software dell'utente.

Cliccando su “Accetto”, acconsenti all'uso di cookie, identificatori di dispositivo, web beacon o altre tecnologie simili. Puoi modificare le impostazioni nel browser del tuo dispositivo.

Per determinati scopi, è possibile fare affidamento su interessi legali, piuttosto che sul consenso. Puoi approfondire questo argomento consultando la nostra Informativa sulla privacy e sui cookie.